Weather History for KGEY - January, 2014

Change the Weather History Date:

Tuesday, January 21, 2014

  Actual Average Record
Temperature  
Mean Temperature 19 °F 17 °F  
Max Temperature 32 °F 29 °F 51 °F (2005)
Min Temperature 5 °F 5 °F -25 °F (2008)
Degree Days  
Heating Degree Days 46 48  
Month to date heating degree days 890 1019  
Since 1 July heating degree days 4005 4342  
Cooling Degree Days 0 0  
Month to date cooling degree days 0 0  
Year to date cooling degree days 0 0  
Moisture  
Dew Point 12 °F    
Average Humidity 73    
Maximum Humidity 91    
Minimum Humidity 54    
Precipitation  
Precipitation 0.00 in 0.01 in 0.02 in (2012)
Month to date precipitation T 0.16  
Year to date precipitation T 0.16  
Sea Level Pressure  
Sea Level Pressure 30.40 in    
Wind  
Wind Speed 2 mph (WNW)    
Max Wind Speed 8 mph    
Max Gust Speed 9 mph    
Visibility 10 miles    
Events      
T = Trace of Precipitation, MM = Missing Value Source: NWS Daily Summary

Daily Weather History Graph

Daily Weather History Graph

Search for Another Location

Airport or City:

Trip Planner

Search our weather history database for the weather conditions in past years. The results will help you decide how hot, cold, wet, or windy it might be!

Date:

Astronomy

Jan. 21, 2014 Rise Set
Actual Time 7:41 AM MST 5:06 PM MST
Civil Twilight 7:09 AM MST 5:38 PM MST
Nautical Twilight 6:33 AM MST 6:13 PM MST
Astronomical Twilight 5:59 AM MST 6:48 PM MST
Moon 10:57 PM MST (1/21) 9:58 AM MST (1/21)
Length of Visible Light 10h 28m
Length of Day
9h 24m
Waning Gibbous, 74% of the Moon is Illuminated
Jan 21
Waning Gibbous
Jan 23
Last Quarter
Jan 30
New
Feb 6
First Quarter
Feb 14
Full

Hourly Weather History & Observations

Time (MST) Temp. Windchill Dew Point Humidity Pressure Visibility Wind Dir Wind Speed Gust Speed Precip Events Conditions
12:53 AM 15.1 °F - 12.0 °F 88% 30.42 in 10.0 mi Calm Calm - N/A   Clear
1:53 AM 9.0 °F 2.4 °F 6.1 °F 88% 30.42 in 10.0 mi NW 3.5 mph - N/A   Clear
2:53 AM 9.0 °F 0.6 °F 6.1 °F 88% 30.42 in 10.0 mi Variable 4.6 mph - N/A   Clear
3:53 AM 12.0 °F 2.7 °F 7.0 °F 80% 30.40 in 10.0 mi ESE 5.8 mph - N/A   Clear
4:53 AM 9.0 °F - 5.0 °F 84% 30.41 in 10.0 mi Calm Calm - N/A   Clear
5:53 AM 6.1 °F - 1.9 °F 83% 30.43 in 10.0 mi Calm Calm - N/A   Clear
6:53 AM 7.0 °F 0.1 °F 3.0 °F 84% 30.44 in 10.0 mi SW 3.5 mph - N/A   Clear
7:53 AM 6.1 °F -0.9 °F 1.9 °F 83% 30.45 in 10.0 mi WSW 3.5 mph - N/A   Clear
8:53 AM 12.0 °F - 8.1 °F 84% 30.44 in 10.0 mi Calm Calm - N/A   Clear
9:53 AM 14.0 °F - 10.9 °F 88% 30.44 in 10.0 mi Calm Calm - N/A   Clear
10:53 AM 19.9 °F - 12.0 °F 71% 30.45 in 10.0 mi Calm Calm - N/A   Clear
11:53 AM 24.1 °F - 15.1 °F 69% 30.40 in 10.0 mi Calm Calm - N/A   Clear
12:53 PM 27.0 °F 23.0 °F 16.0 °F 63% 30.38 in 10.0 mi NNW 3.5 mph - N/A   Clear
1:53 PM 30.0 °F 25.2 °F 17.1 °F 59% 30.36 in 10.0 mi North 4.6 mph - N/A   Clear
2:53 PM 32.0 °F 26.4 °F 18.0 °F 56% 30.34 in 10.0 mi WNW 5.8 mph - N/A   Clear
3:53 PM 30.9 °F 26.2 °F 18.0 °F 59% 30.34 in 10.0 mi WNW 4.6 mph - N/A   Clear
4:53 PM 28.9 °F 25.2 °F 18.0 °F 64% 30.34 in 10.0 mi WNW 3.5 mph - N/A   Clear
5:53 PM 24.1 °F 18.2 °F 17.1 °F 75% 30.37 in 10.0 mi WNW 4.6 mph - N/A   Clear
6:53 PM 19.9 °F 13.4 °F 15.1 °F 81% 30.39 in 10.0 mi NW 4.6 mph - N/A   Clear
7:53 PM 17.1 °F - 12.9 °F 84% 30.40 in 10.0 mi Calm Calm - N/A   Clear
8:53 PM 16.0 °F 8.8 °F 12.9 °F 88% 30.39 in 10.0 mi West 4.6 mph - N/A   Clear
9:53 PM 18.0 °F - 14.0 °F 84% 30.37 in 10.0 mi Calm Calm - N/A   Overcast
10:53 PM 18.0 °F - 14.0 °F 84% 30.37 in 10.0 mi Calm Calm - N/A   Overcast
11:53 PM 19.9 °F - 15.1 °F 81% 30.35 in 10.0 mi Calm Calm - N/A   Overcast